Regional Weather Roundup
Issued by NWS

Home | Current Version | Previous Version | Text Only | Print | Product List | Glossary On
Versions: 1 2 3 4 5 6 7 8 9 10 11 12 13 14 15 16 17 18 19 20 21 22 23 24 25 26 27
000
ASUS46 KSEW 141410
RWRWA

WASHINGTON REGIONAL WEATHER ROUNDUP
NATIONAL WEATHER SERVICE SEATTLE WA
600 AM PST THU DEC 14 2017

NOTE:"FAIR" INDICATES FEW OR NO CLOUDS BELOW 12,000 FEET WITH NO
SIGNIFICANT WEATHER AND/OR OBSTRUCTIONS TO VISIBILITY.

WAZ507-509-555>559-141500-
SEATTLE, TACOMA, EVERETT, AND VICINITY

CITY           SKY/WX    TMP DP  RH WIND       PRES   REMARKS
EVERETT        CLOUDY    44  33  65 VRB5      30.34F
BOEING FIELD   CLOUDY    36  35  96 CALM      30.34F
RENTON         CLOUDY    35  33  92 CALM      30.34S
SEATAC AIRPORT CLOUDY    41  36  82 NE7       30.32F
JBLM-MCCHORD   CLOUDY    29  29 100 CALM      30.33S
PUYALLUP         N/A     30  30 100 CALM      30.31F
BREMERTON      MOCLDY    33  31  92 CALM      30.33S
JBLM-FT LEWIS  NOT AVBL
TACOMA NARROWS CLOUDY    36  36 100 CALM      30.33S FOG
$$

WAZ001-503-506-510-514-515-141500-
NORTH INTERIOR

CITY           SKY/WX    TMP DP  RH WIND       PRES   REMARKS
BELLINGHAM     MOCLDY    31  31 100 N3        30.36F FOG
FRIDAY HARBOR  MOCLDY    42  40  92 VRB5      30.38R
EASTSOUND      MOCLDY    39  39 100 CALM      30.38R FOG
PORT ANGELES   PTCLDY    34  34 100 CALM      30.37S
EDIZ HOOK      FAIR      41  38  89 SW3       30.37S
PORT TOWNSEND  FAIR      32  32 100 CALM      30.37S
NAS WHIDBEY    CLOUDY    40  35  83 SE3       30.40S
ARLINGTON      CLOUDY    29  28  96 CALM      30.36F
BURLINGTON     CLEAR     34  34 100 NW3       30.36F
$$

WAZ020-022-039-040-504-511-512-141500-
SOUTHWEST INTERIOR

CITY           SKY/WX    TMP DP  RH WIND       PRES   REMARKS
SHELTON        MOCLDY    30  29  96 CALM      30.32R
OLYMPIA        FOG       31  31 100 CALM      30.34R VSB 1/4
CHEHALIS       FOG       30  32 100 CALM      30.34S VSB<1/4
KELSO          PTCLDY    27  27 100 CALM      30.35F FOG
VANCOUVER      CLEAR     27  26  96 CALM      30.34F
SCAPPOOSE, OR  CLEAR     29  27  92 W3        30.35S
PORTLAND, OR   PTCLDY    39  29  67 VRB7G18   30.33F
$$

WAZ021-516-517-141500-
WASHINGTON COAST

CITY           SKY/WX    TMP DP  RH WIND       PRES   REMARKS
FORKS          CLEAR     34  32  92 CALM      30.31F
HOQUIAM        CLEAR     38  37  97 NE7       30.31R
ASTORIA, OR    PTCLDY    41  34  76 E8        30.26S
$$

WAZ019-023-024-040-567>569-141500-
CASCADE MOUNTAINS AND COLUMBIA GORGE

CITY           SKY/WX    TMP DP  RH WIND       PRES   REMARKS
STAMPEDE PASS  FOG       23  21  92 N8        30.37F VSB 1/2
TROUTDALE, OR  CLEAR     39  28  64 E29G37    30.35S
HOOD RIVER, OR CLOUDY    32  27  80 NE12G18   30.62S WCI  23
THE DALLES, OR CLOUDY    34  26  72 SE12      30.65S WCI  25
$$

WAZ026-027-041>044-520-521-141500-
EAST SLOPES

CITY           SKY/WX    TMP DP  RH WIND       PRES   REMARKS
OMAK           CLOUDY    31  31 100 S6        30.57S FOG
WENATCHEE      CLOUDY    30  28  92 CALM      30.58S
ELLENSBURG     CLOUDY    30  28  92 CALM      30.55S FOG
YAKIMA         CLOUDY    33  28  81 W5        30.61S
SUNNYSIDE ARPT CLOUDY    30  26  87 W5        30.62S
YAKIMA TC      CLOUDY    29  26  89 CALM      30.57R
$$

WAZ028-034-035-141500-
COLUMBIA BASIN

CITY           SKY/WX    TMP DP  RH WIND       PRES   REMARKS
EPHRATA        CLOUDY    33  26  75 NW3       30.57S
MOSES LAKE     CLOUDY    32  28  85 CALM      30.58S
PASCO          CLOUDY    32  29  88 SE3       30.65S
RICHLAND ARPT  CLOUDY    32  30  92 E5        30.65S
HERMISTON, OR  CLOUDY    30  28  92 SE5       30.63R
$$

WAZ036>038-141500-
NORTHEAST WASHINGTON

CITY           SKY/WX    TMP DP  RH WIND       PRES   REMARKS
SPOKANE GEIGER CLOUDY    30  27  88 NE7       30.51F
SPOKANE FELTS  CLOUDY    31  27  85 CALM      30.54F
FAIRCHILD AFB  CLOUDY    29  29  99 NE7       30.49F
COEURDALENE,ID CLOUDY    30  27  88 N8        30.53
DEER PARK      CLOUDY    30  26  85 NE8       30.53F
$$

WAZ029>033-141500-
SOUTHEAST WASHINGTON

CITY           SKY/WX    TMP DP  RH WIND       PRES   REMARKS
PULLMAN        CLOUDY    27  24  89 E3        30.53R
LEWISTON, ID   CLOUDY    32  28  85 CALM      30.57R
WALLA WALLA    CLOUDY    28  27  96 W3        30.59S FOG
PENDLETON, OR  CLOUDY    26  24  92 S3        30.57S
$$




USA.gov is the U.S. government's official web portal to all federal, state and local government web resources and services.